Time,TemperatureF,DewpointF,PressureIn,WindDirection,WindDirectionDegrees,WindSpeedMPH,WindSpeedGustMPH,Humidity,HourlyPrecipIn,Conditions,Clouds,dailyrainin,SoftwareType,DateUTC
2013-05-13 00:01:00,55.0,47.5,29.80,WNW,292,2.0,13.0,76,0.00,,,0.00,Rainwise IP-100,2013-05-13 04:01:00,
2013-05-13 00:06:00,55.0,47.5,29.80,NW,315,10.0,13.0,76,0.00,,,0.00,Rainwise IP-100,2013-05-13 04:06:00,
2013-05-13 00:11:00,55.0,48.0,29.81,NW,315,7.0,12.0,77,0.00,,,0.00,Rainwise IP-100,2013-05-13 04:11:00,
2013-05-13 00:16:00,55.0,47.5,29.81,NNW,337,9.0,12.0,76,0.00,,,0.00,Rainwise IP-100,2013-05-13 04:16:00,
2013-05-13 00:21:00,55.0,48.0,29.81,NNW,337,9.0,12.0,77,0.00,,,0.00,Rainwise IP-100,2013-05-13 04:21:00,
2013-05-13 00:26:00,55.0,48.0,29.81,WNW,292,7.0,10.0,77,0.00,,,0.00,Rainwise IP-100,2013-05-13 04:26:00,
2013-05-13 00:31:00,55.0,48.0,29.81,WNW,292,9.0,11.0,78,0.00,,,0.00,Rainwise IP-100,2013-05-13 04:31:00,
2013-05-13 00:36:00,55.0,48.0,29.81,NW,315,1.0,12.0,77,0.00,,,0.00,Rainwise IP-100,2013-05-13 04:36:00,
2013-05-13 00:41:00,55.0,48.0,29.81,NW,315,4.0,10.0,78,0.00,,,0.00,Rainwise IP-100,2013-05-13 04:41:00,
2013-05-13 00:46:00,55.0,48.0,29.81,NW,315,4.0,10.0,78,0.00,,,0.00,Rainwise IP-100,2013-05-13 04:46:00,
2013-05-13 00:51:00,55.0,48.0,29.82,NW,315,1.0,10.0,78,0.00,,,0.00,Rainwise IP-100,2013-05-13 04:51:00,
2013-05-13 00:56:00,55.0,48.0,29.82,NW,315,3.0,10.0,78,0.00,,,0.00,Rainwise IP-100,2013-05-13 04:56:00,
2013-05-13 01:01:00,55.0,48.0,29.83,NW,315,7.0,9.0,78,0.00,,,0.00,Rainwise IP-100,2013-05-13 05:01:00,
2013-05-13 01:06:00,55.0,48.0,29.83,NNW,337,1.0,9.0,78,0.00,,,0.00,Rainwise IP-100,2013-05-13 05:06:00,
2013-05-13 01:12:00,55.0,48.0,29.83,NNW,337,12.0,12.0,78,0.00,,,0.00,Rainwise IP-100,2013-05-13 05:12:00,
2013-05-13 01:17:00,55.0,48.0,29.83,NW,315,10.0,17.0,78,0.00,,,0.00,Rainwise IP-100,2013-05-13 05:17:00,
2013-05-13 01:22:00,55.0,48.0,29.83,NNW,337,12.0,18.0,78,0.00,,,0.00,Rainwise IP-100,2013-05-13 05:22:00,
2013-05-13 01:27:00,55.0,48.0,29.83,NW,315,10.0,17.0,78,0.00,,,0.00,Rainwise IP-100,2013-05-13 05:27:00,
2013-05-13 01:32:00,55.0,48.0,29.84,NW,315,2.0,17.0,78,0.00,,,0.00,Rainwise IP-100,2013-05-13 05:32:00,
2013-05-13 01:37:00,55.0,48.0,29.84,NW,315,6.0,17.0,78,0.00,,,0.00,Rainwise IP-100,2013-05-13 05:37:00,
2013-05-13 01:42:00,54.0,47.5,29.84,NW,315,5.0,17.0,78,0.00,,,0.00,Rainwise IP-100,2013-05-13 05:42:00,
2013-05-13 01:47:00,54.0,47.5,29.84,WNW,292,6.0,15.0,78,0.00,,,0.00,Rainwise IP-100,2013-05-13 05:47:00,
2013-05-13 01:52:00,54.0,47.5,29.85,NW,315,9.0,10.0,78,0.00,,,0.00,Rainwise IP-100,2013-05-13 05:52:00,
2013-05-13 01:57:00,54.0,47.5,29.85,WNW,292,6.0,17.0,78,0.00,,,0.00,Rainwise IP-100,2013-05-13 05:57:00,
2013-05-13 02:02:00,54.0,47.5,29.86,NW,315,12.0,14.0,78,0.00,,,0.00,Rainwise IP-100,2013-05-13 06:02:00,
2013-05-13 02:07:00,54.0,47.5,29.86,WNW,292,10.0,21.0,78,0.00,,,0.00,Rainwise IP-100,2013-05-13 06:07:00,
2013-05-13 02:12:00,54.0,47.5,29.86,NW,315,15.0,20.0,78,0.00,,,0.00,Rainwise IP-100,2013-05-13 06:12:00,
2013-05-13 02:17:00,54.0,47.5,29.86,NW,315,6.0,21.0,78,0.00,,,0.00,Rainwise IP-100,2013-05-13 06:17:00,
2013-05-13 02:22:00,54.0,47.5,29.87,NW,315,11.0,16.0,79,0.00,,,0.00,Rainwise IP-100,2013-05-13 06:22:00,
2013-05-13 02:28:00,54.0,47.5,29.87,NW,315,9.0,15.0,78,0.00,,,0.00,Rainwise IP-100,2013-05-13 06:28:00,
2013-05-13 02:30:00,53.0,46.0,29.87,NW,315,2.0,14.0,78,0.00,,,0.00,Rainwise IP-100,2013-05-13 06:30:00,
2013-05-13 02:31:00,53.0,46.0,29.87,NW,315,2.0,14.0,78,0.00,,,0.00,Rainwise IP-100,2013-05-13 06:31:00,
2013-05-13 02:36:00,53.0,46.0,29.87,NW,315,7.0,12.0,78,0.00,,,0.00,Rainwise IP-100,2013-05-13 06:36:00,
2013-05-13 02:42:00,53.0,46.0,29.88,NNW,337,6.0,12.0,78,0.00,,,0.00,Rainwise IP-100,2013-05-13 06:42:00,
2013-05-13 02:47:00,53.0,46.0,29.88,WNW,292,8.0,12.0,78,0.00,,,0.00,Rainwise IP-100,2013-05-13 06:47:00,
2013-05-13 02:52:00,52.0,45.0,29.88,WNW,292,0.0,14.0,78,0.00,,,0.00,Rainwise IP-100,2013-05-13 06:52:00,
2013-05-13 02:57:00,52.0,45.0,29.88,WSW,247,0.0,13.0,78,0.00,,,0.00,Rainwise IP-100,2013-05-13 06:57:00,
2013-05-13 03:02:00,52.0,45.0,29.88,WNW,292,3.0,9.0,78,0.00,,,0.00,Rainwise IP-100,2013-05-13 07:02:00,
2013-05-13 03:07:00,51.0,45.0,29.88,NW,315,5.0,8.0,78,0.00,,,0.00,Rainwise IP-100,2013-05-13 07:07:00,
2013-05-13 03:12:00,51.0,45.0,29.89,WNW,292,1.0,9.0,78,0.00,,,0.00,Rainwise IP-100,2013-05-13 07:12:00,
2013-05-13 03:17:00,51.0,45.0,29.89,WNW,292,5.0,7.0,78,0.00,,,0.00,Rainwise IP-100,2013-05-13 07:17:00,
2013-05-13 03:22:00,50.0,43.0,29.90,WNW,292,0.0,7.0,78,0.00,,,0.00,Rainwise IP-100,2013-05-13 07:22:00,
2013-05-13 03:27:00,50.0,43.0,29.90,WNW,292,1.0,5.0,78,0.00,,,0.00,Rainwise IP-100,2013-05-13 07:27:00,
2013-05-13 03:32:00,50.0,43.0,29.90,NW,315,0.0,9.0,78,0.00,,,0.00,Rainwise IP-100,2013-05-13 07:32:00,
2013-05-13 03:37:00,50.0,43.0,29.90,WNW,292,1.0,9.0,78,0.00,,,0.00,Rainwise IP-100,2013-05-13 07:37:00,
2013-05-13 03:42:00,50.0,43.0,29.90,WNW,292,3.0,8.0,78,0.00,,,0.00,Rainwise IP-100,2013-05-13 07:42:00,
2013-05-13 03:47:00,50.0,43.0,29.90,WNW,292,1.0,9.0,78,0.00,,,0.00,Rainwise IP-100,2013-05-13 07:47:00,
2013-05-13 03:52:00,50.0,43.0,29.90,WNW,292,3.0,6.0,78,0.00,,,0.00,Rainwise IP-100,2013-05-13 07:52:00,
2013-05-13 03:58:00,50.0,43.0,29.90,NW,315,2.0,7.0,78,0.00,,,0.00,Rainwise IP-100,2013-05-13 07:58:00,
2013-05-13 04:03:00,50.0,43.0,29.90,NW,315,6.0,7.0,78,0.00,,,0.00,Rainwise IP-100,2013-05-13 08:03:00,
2013-05-13 04:08:00,50.0,43.0,29.90,West,270,2.0,8.0,78,0.00,,,0.00,Rainwise IP-100,2013-05-13 08:08:00,
2013-05-13 04:13:00,50.0,43.0,29.91,NW,315,3.0,6.0,78,0.00,,,0.00,Rainwise IP-100,2013-05-13 08:13:00,
2013-05-13 04:18:00,50.0,43.0,29.91,WNW,292,4.0,6.0,78,0.00,,,0.00,Rainwise IP-100,2013-05-13 08:18:00,
2013-05-13 04:23:00,49.0,42.0,29.91,WSW,247,0.0,7.0,78,0.00,,,0.00,Rainwise IP-100,2013-05-13 08:23:00,
2013-05-13 04:27:00,49.0,42.0,29.91,SW,225,1.0,7.0,78,0.00,,,0.00,Rainwise IP-100,2013-05-13 08:27:00,
2013-05-13 04:32:00,49.0,42.0,29.92,West,270,0.0,7.0,78,0.00,,,0.00,Rainwise IP-100,2013-05-13 08:32:00,
2013-05-13 04:38:00,49.0,42.0,29.92,NW,315,0.0,7.0,78,0.00,,,0.00,Rainwise IP-100,2013-05-13 08:38:00,
2013-05-13 04:43:00,49.0,42.0,29.92,West,270,0.0,5.0,78,0.00,,,0.00,Rainwise IP-100,2013-05-13 08:43:00,
2013-05-13 04:48:00,49.0,42.0,29.92,West,270,0.0,7.0,78,0.00,,,0.00,Rainwise IP-100,2013-05-13 08:48:00,
2013-05-13 04:53:00,49.0,42.0,29.92,WNW,292,0.0,6.0,78,0.00,,,0.00,Rainwise IP-100,2013-05-13 08:53:00,
2013-05-13 04:58:00,48.0,42.0,29.92,WNW,292,2.0,2.0,78,0.00,,,0.00,Rainwise IP-100,2013-05-13 08:58:00,
2013-05-13 05:03:00,48.0,42.0,29.93,West,270,3.0,5.0,78,0.00,,,0.00,Rainwise IP-100,2013-05-13 09:03:00,
2013-05-13 05:08:00,48.0,42.0,29.93,WNW,292,1.0,4.0,78,0.00,,,0.00,Rainwise IP-100,2013-05-13 09:08:00,
2013-05-13 05:13:00,48.0,42.0,29.94,WNW,292,0.0,3.0,78,0.00,,,0.00,Rainwise IP-100,2013-05-13 09:13:00,
2013-05-13 05:18:00,48.0,42.0,29.94,West,270,1.0,3.0,78,0.00,,,0.00,Rainwise IP-100,2013-05-13 09:18:00,
2013-05-13 05:23:00,47.0,40.0,29.94,West,270,1.0,4.0,77,0.00,,,0.00,Rainwise IP-100,2013-05-13 09:23:00,
2013-05-13 05:28:00,47.0,40.0,29.94,West,270,0.0,3.0,77,0.00,,,0.00,Rainwise IP-100,2013-05-13 09:28:00,
2013-05-13 05:33:00,47.0,40.0,29.95,WSW,247,0.0,0.0,77,0.00,,,0.00,Rainwise IP-100,2013-05-13 09:33:00,
2013-05-13 05:38:00,47.0,40.0,29.95,WNW,292,0.0,0.0,77,0.00,,,0.00,Rainwise IP-100,2013-05-13 09:38:00,
2013-05-13 05:43:00,47.0,40.0,29.95,WSW,247,1.0,1.0,77,0.00,,,0.00,Rainwise IP-100,2013-05-13 09:43:00,
2013-05-13 05:48:00,47.0,40.0,29.95,WSW,247,0.0,1.0,77,0.00,,,0.00,Rainwise IP-100,2013-05-13 09:48:00,
2013-05-13 05:54:00,47.0,40.0,29.96,SW,225,0.0,2.0,77,0.00,,,0.00,Rainwise IP-100,2013-05-13 09:54:00,
2013-05-13 05:59:00,47.0,40.0,29.96,SW,225,1.0,2.0,77,0.00,,,0.00,Rainwise IP-100,2013-05-13 09:59:00,
2013-05-13 06:04:00,47.0,40.0,29.96,SW,225,0.0,2.0,77,0.00,,,0.00,Rainwise IP-100,2013-05-13 10:04:00,
2013-05-13 06:09:00,47.0,40.0,29.96,SW,225,0.0,1.0,77,0.00,,,0.00,Rainwise IP-100,2013-05-13 10:09:00,
2013-05-13 06:14:00,48.0,42.0,29.96,WNW,292,0.0,0.0,78,0.00,,,0.00,Rainwise IP-100,2013-05-13 10:14:00,
2013-05-13 06:19:00,48.0,42.0,29.97,WSW,247,0.0,2.0,80,0.00,,,0.00,Rainwise IP-100,2013-05-13 10:19:00,
2013-05-13 06:24:00,49.0,42.0,29.97,WSW,247,0.0,0.0,78,0.00,,,0.00,Rainwise IP-100,2013-05-13 10:24:00,
2013-05-13 06:29:00,49.0,42.0,29.97,SW,225,0.0,1.0,78,0.00,,,0.00,Rainwise IP-100,2013-05-13 10:29:00,
2013-05-13 06:34:00,50.0,43.0,29.97,SW,225,0.0,1.0,78,0.00,,,0.00,Rainwise IP-100,2013-05-13 10:34:00,
2013-05-13 06:39:00,51.0,45.0,29.96,SW,225,0.0,1.0,80,0.00,,,0.00,Rainwise IP-100,2013-05-13 10:39:00,
2013-05-13 06:44:00,51.0,45.0,29.96,SW,225,0.0,1.0,78,0.00,,,0.00,Rainwise IP-100,2013-05-13 10:44:00,
2013-05-13 06:46:00,51.0,45.0,29.96,SW,225,0.0,1.0,78,0.00,,,0.00,Rainwise IP-100,2013-05-13 10:46:00,
2013-05-13 06:51:00,52.0,45.0,29.96,West,270,0.0,4.0,78,0.00,,,0.00,Rainwise IP-100,2013-05-13 10:51:00,
2013-05-13 06:56:00,52.0,45.0,29.96,NW,315,0.0,5.0,78,0.00,,,0.00,Rainwise IP-100,2013-05-13 10:56:00,
2013-05-13 07:01:00,52.0,45.0,29.96,WSW,247,0.0,6.0,78,0.00,,,0.00,Rainwise IP-100,2013-05-13 11:01:00,
2013-05-13 07:06:00,52.0,45.0,29.96,West,270,4.0,7.0,78,0.00,,,0.00,Rainwise IP-100,2013-05-13 11:06:00,
2013-05-13 07:11:00,53.0,46.0,29.96,WNW,292,6.0,11.0,78,0.00,,,0.00,Rainwise IP-100,2013-05-13 11:11:00,
2013-05-13 07:16:00,53.0,46.0,29.96,NW,315,0.0,12.0,78,0.00,,,0.00,Rainwise IP-100,2013-05-13 11:16:00,
2013-05-13 07:21:00,53.0,46.0,29.96,SW,225,6.0,11.0,78,0.00,,,0.00,Rainwise IP-100,2013-05-13 11:21:00,
2013-05-13 07:26:00,53.0,46.0,29.96,West,270,5.0,13.0,78,0.00,,,0.00,Rainwise IP-100,2013-05-13 11:26:00,
2013-05-13 07:31:00,53.0,46.0,29.97,WSW,247,5.0,15.0,78,0.00,,,0.00,Rainwise IP-100,2013-05-13 11:31:00,
2013-05-13 07:37:00,53.0,46.0,29.97,SSW,202,0.0,12.0,78,0.00,,,0.00,Rainwise IP-100,2013-05-13 11:37:00,
2013-05-13 07:42:00,54.0,47.5,29.97,WNW,292,11.0,13.0,79,0.00,,,0.00,Rainwise IP-100,2013-05-13 11:42:00,
2013-05-13 07:47:00,53.0,46.0,29.97,South,180,6.0,13.0,78,0.00,,,0.00,Rainwise IP-100,2013-05-13 11:47:00,
2013-05-13 07:52:00,54.0,47.5,29.98,WSW,247,2.0,12.0,79,0.00,,,0.00,Rainwise IP-100,2013-05-13 11:52:00,
2013-05-13 07:57:00,53.0,46.0,29.98,WSW,247,6.0,14.0,78,0.00,,,0.00,Rainwise IP-100,2013-05-13 11:57:00,
2013-05-13 08:02:00,55.0,49.0,29.98,West,270,4.0,8.0,79,0.00,,,0.00,Rainwise IP-100,2013-05-13 12:02:00,
2013-05-13 08:07:00,54.0,47.5,29.98,SW,225,0.0,13.0,79,0.00,,,0.00,Rainwise IP-100,2013-05-13 12:07:00,
2013-05-13 08:12:00,53.0,46.0,29.98,WNW,292,6.0,13.0,78,0.00,,,0.00,Rainwise IP-100,2013-05-13 12:12:00,
2013-05-13 08:17:00,54.0,47.5,29.98,NNW,337,3.0,15.0,79,0.00,,,0.00,Rainwise IP-100,2013-05-13 12:17:00,
2013-05-13 08:22:00,53.0,46.0,29.99,WNW,292,6.0,12.0,78,0.00,,,0.00,Rainwise IP-100,2013-05-13 12:22:00,
2013-05-13 08:27:00,53.0,46.0,29.99,West,270,13.0,13.0,78,0.00,,,0.00,Rainwise IP-100,2013-05-13 12:27:00,
2013-05-13 08:32:00,53.0,46.0,29.99,WSW,247,4.0,15.0,78,0.00,,,0.00,Rainwise IP-100,2013-05-13 12:32:00,
2013-05-13 08:37:00,53.0,46.0,29.99,West,270,14.0,14.0,78,0.00,,,0.00,Rainwise IP-100,2013-05-13 12:37:00,
2013-05-13 08:42:00,53.0,46.0,29.99,WSW,247,4.0,14.0,78,0.00,,,0.00,Rainwise IP-100,2013-05-13 12:42:00,
2013-05-13 08:47:00,53.0,46.0,29.99,SW,225,6.0,16.0,78,0.00,,,0.00,Rainwise IP-100,2013-05-13 12:47:00,
2013-05-13 08:53:00,53.0,46.0,29.99,SW,225,3.0,14.0,78,0.00,,,0.00,Rainwise IP-100,2013-05-13 12:53:00,
2013-05-13 08:58:00,54.0,47.5,29.99,NW,315,2.0,16.0,79,0.00,,,0.00,Rainwise IP-100,2013-05-13 12:58:00,
2013-05-13 09:03:00,53.0,47.0,29.99,SW,225,6.0,15.0,79,0.00,,,0.00,Rainwise IP-100,2013-05-13 13:03:00,
2013-05-13 09:08:00,53.0,46.0,29.99,SW,225,6.0,13.0,78,0.00,,,0.00,Rainwise IP-100,2013-05-13 13:08:00,
2013-05-13 09:13:00,53.0,47.0,30.00,WSW,247,8.0,17.0,79,0.00,,,0.00,Rainwise IP-100,2013-05-13 13:13:00,
2013-05-13 09:18:00,53.0,46.0,30.00,SSW,202,11.0,18.0,78,0.00,,,0.00,Rainwise IP-100,2013-05-13 13:18:00,
2013-05-13 09:23:00,53.0,46.0,29.99,NW,315,9.0,17.0,78,0.00,,,0.00,Rainwise IP-100,2013-05-13 13:23:00,
2013-05-13 09:28:00,53.0,46.0,29.99,SW,225,4.0,17.0,78,0.00,,,0.00,Rainwise IP-100,2013-05-13 13:28:00,
2013-05-13 09:33:00,53.0,47.0,30.00,West,270,12.0,15.0,79,0.00,,,0.00,Rainwise IP-100,2013-05-13 13:33:00,
2013-05-13 09:38:00,53.0,47.0,30.00,NW,315,8.0,18.0,79,0.00,,,0.00,Rainwise IP-100,2013-05-13 13:38:00,
2013-05-13 09:43:00,53.0,47.0,30.00,NNW,337,9.0,15.0,79,0.00,,,0.00,Rainwise IP-100,2013-05-13 13:43:00,
2013-05-13 09:48:00,54.0,48.0,30.00,WSW,247,5.0,12.0,80,0.00,,,0.00,Rainwise IP-100,2013-05-13 13:48:00,
2013-05-13 09:53:00,53.0,47.0,30.00,SW,225,10.0,17.0,79,0.00,,,0.00,Rainwise IP-100,2013-05-13 13:53:00,
2013-05-13 09:58:00,54.0,48.0,30.00,NW,315,6.0,20.0,80,0.00,,,0.00,Rainwise IP-100,2013-05-13 13:58:00,
2013-05-13 10:03:00,53.0,47.0,30.00,South,180,17.0,17.0,79,0.00,,,0.00,Rainwise IP-100,2013-05-13 14:03:00,
2013-05-13 10:09:00,54.0,48.0,30.00,West,270,6.0,16.0,80,0.00,,,0.00,Rainwise IP-100,2013-05-13 14:09:00,
2013-05-13 10:14:00,53.0,47.0,30.01,West,270,9.0,20.0,79,0.00,,,0.00,Rainwise IP-100,2013-05-13 14:14:00,
2013-05-13 10:19:00,53.0,47.0,30.01,North,360,2.0,16.0,79,0.00,,,0.00,Rainwise IP-100,2013-05-13 14:19:00,
2013-05-13 10:24:00,54.0,48.0,30.00,SW,225,9.0,20.0,80,0.00,,,0.00,Rainwise IP-100,2013-05-13 14:24:00,
2013-05-13 10:29:00,54.0,48.0,30.00,West,270,9.0,17.0,80,0.00,,,0.00,Rainwise IP-100,2013-05-13 14:29:00,
2013-05-13 10:34:00,54.0,48.0,30.00,West,270,8.0,16.0,80,0.00,,,0.00,Rainwise IP-100,2013-05-13 14:34:00,
2013-05-13 10:39:00,54.0,48.0,30.00,WSW,247,9.0,18.0,81,0.00,,,0.00,Rainwise IP-100,2013-05-13 14:39:00,
2013-05-13 10:44:00,54.0,48.0,30.00,West,270,8.0,16.0,80,0.00,,,0.00,Rainwise IP-100,2013-05-13 14:44:00,
2013-05-13 10:49:00,54.0,48.0,30.00,South,180,1.0,16.0,81,0.00,,,0.00,Rainwise IP-100,2013-05-13 14:49:00,
2013-05-13 10:54:00,54.0,48.0,30.00,SW,225,6.0,19.0,80,0.00,,,0.00,Rainwise IP-100,2013-05-13 14:54:00,
2013-05-13 10:59:00,54.0,48.0,30.00,SW,225,10.0,19.0,81,0.00,,,0.00,Rainwise IP-100,2013-05-13 14:59:00,
2013-05-13 11:04:00,53.0,47.0,30.00,WSW,247,5.0,17.0,79,0.00,,,0.00,Rainwise IP-100,2013-05-13 15:04:00,
2013-05-13 11:09:00,54.0,48.0,30.00,NW,315,9.0,15.0,81,0.00,,,0.00,Rainwise IP-100,2013-05-13 15:09:00,
2013-05-13 11:14:00,53.0,47.0,30.00,SW,225,15.0,20.0,79,0.00,,,0.00,Rainwise IP-100,2013-05-13 15:14:00,
2013-05-13 11:19:00,54.0,48.0,30.00,West,270,11.0,19.0,81,0.00,,,0.00,Rainwise IP-100,2013-05-13 15:19:00,
2013-05-13 11:25:00,54.0,48.0,30.00,NW,315,17.0,19.0,80,0.00,,,0.00,Rainwise IP-100,2013-05-13 15:25:00,
2013-05-13 11:30:00,54.0,48.0,30.01,SW,225,19.0,19.0,81,0.00,,,0.00,Rainwise IP-100,2013-05-13 15:30:00,
2013-05-13 11:35:00,54.0,48.0,30.01,WSW,247,5.0,19.0,80,0.00,,,0.00,Rainwise IP-100,2013-05-13 15:35:00,
2013-05-13 11:40:00,54.0,48.0,30.01,WSW,247,7.0,19.0,81,0.00,,,0.00,Rainwise IP-100,2013-05-13 15:40:00,
2013-05-13 11:45:00,53.0,47.0,30.01,South,180,0.0,22.0,79,0.00,,,0.00,Rainwise IP-100,2013-05-13 15:45:00,
2013-05-13 11:50:00,53.0,47.0,30.01,WNW,292,10.0,18.0,80,0.00,,,0.00,Rainwise IP-100,2013-05-13 15:50:00,
2013-05-13 11:55:00,54.0,48.0,30.01,NNW,337,8.0,20.0,80,0.00,,,0.00,Rainwise IP-100,2013-05-13 15:55:00,
2013-05-13 12:00:00,53.0,47.0,30.01,SW,225,0.0,20.0,80,0.00,,,0.00,Rainwise IP-100,2013-05-13 16:00:00,
2013-05-13 12:05:00,53.0,47.0,30.01,SW,225,10.0,16.0,80,0.00,,,0.00,Rainwise IP-100,2013-05-13 16:05:00,
2013-05-13 12:10:00,54.0,48.0,30.01,WSW,247,4.0,20.0,81,0.00,,,0.00,Rainwise IP-100,2013-05-13 16:10:00,
2013-05-13 12:15:00,53.0,47.0,30.01,SW,225,7.0,16.0,80,0.00,,,0.00,Rainwise IP-100,2013-05-13 16:15:00,
2013-05-13 12:20:00,54.0,48.0,30.00,SW,225,6.0,16.0,81,0.00,,,0.00,Rainwise IP-100,2013-05-13 16:20:00,
2013-05-13 12:25:00,53.0,47.0,30.00,SSW,202,2.0,20.0,80,0.00,,,0.00,Rainwise IP-100,2013-05-13 16:25:00,
2013-05-13 12:30:00,54.0,48.0,30.01,SW,225,10.0,19.0,81,0.00,,,0.00,Rainwise IP-100,2013-05-13 16:30:00,
2013-05-13 12:35:00,53.0,47.0,30.01,SSW,202,2.0,18.0,80,0.00,,,0.00,Rainwise IP-100,2013-05-13 16:35:00,
2013-05-13 12:41:00,53.0,47.0,30.02,SSE,157,2.0,19.0,80,0.00,,,0.00,Rainwise IP-100,2013-05-13 16:41:00,
2013-05-13 12:46:00,54.0,48.0,30.02,West,270,12.0,17.0,81,0.00,,,0.00,Rainwise IP-100,2013-05-13 16:46:00,
2013-05-13 12:51:00,54.0,48.0,30.02,SSW,202,10.0,17.0,81,0.00,,,0.00,Rainwise IP-100,2013-05-13 16:51:00,
2013-05-13 12:56:00,54.0,48.0,30.01,NE,45,0.0,20.0,81,0.00,,,0.00,Rainwise IP-100,2013-05-13 16:56:00,
2013-05-13 13:01:00,54.0,48.0,30.01,WSW,247,12.0,19.0,81,0.00,,,0.00,Rainwise IP-100,2013-05-13 17:01:00,
2013-05-13 13:06:00,53.0,47.0,30.01,WSW,247,16.0,22.0,80,0.00,,,0.00,Rainwise IP-100,2013-05-13 17:06:00,
2013-05-13 13:11:00,54.0,48.0,30.01,West,270,5.0,22.0,81,0.00,,,0.00,Rainwise IP-100,2013-05-13 17:11:00,
2013-05-13 13:16:00,54.0,48.0,30.01,WSW,247,13.0,17.0,81,0.00,,,0.00,Rainwise IP-100,2013-05-13 17:16:00,
2013-05-13 13:21:00,54.0,48.0,30.01,WSW,247,9.0,19.0,81,0.00,,,0.00,Rainwise IP-100,2013-05-13 17:21:00,
2013-05-13 13:26:00,53.0,47.0,30.01,SW,225,7.0,23.0,80,0.00,,,0.00,Rainwise IP-100,2013-05-13 17:26:00,
2013-05-13 13:31:00,53.0,47.0,30.01,West,270,5.0,20.0,80,0.00,,,0.00,Rainwise IP-100,2013-05-13 17:31:00,
2013-05-13 13:37:00,54.0,48.0,30.01,SW,225,2.0,19.0,81,0.00,,,0.00,Rainwise IP-100,2013-05-13 17:37:00,
2013-05-13 13:42:00,54.0,48.0,30.00,West,270,9.0,21.0,81,0.00,,,0.00,Rainwise IP-100,2013-05-13 17:42:00,
2013-05-13 13:47:00,54.0,48.0,30.00,SW,225,8.0,17.0,81,0.00,,,0.00,Rainwise IP-100,2013-05-13 17:47:00,
2013-05-13 13:52:00,53.0,47.0,30.00,SW,225,7.0,18.0,80,0.00,,,0.00,Rainwise IP-100,2013-05-13 17:52:00,
2013-05-13 13:57:00,54.0,48.0,30.00,WSW,247,11.0,19.0,81,0.00,,,0.00,Rainwise IP-100,2013-05-13 17:57:00,
2013-05-13 14:02:00,54.0,48.0,30.00,WSW,247,9.0,16.0,81,0.00,,,0.00,Rainwise IP-100,2013-05-13 18:02:00,
2013-05-13 14:09:00,54.0,48.0,30.00,WSW,247,14.0,17.0,81,0.00,,,0.00,Rainwise IP-100,2013-05-13 18:09:00,
2013-05-13 14:15:00,54.0,48.0,30.01,North,360,6.0,20.0,81,0.00,,,0.00,Rainwise IP-100,2013-05-13 18:15:00,
2013-05-13 14:21:00,54.0,48.0,30.00,SSW,202,8.0,17.0,81,0.00,,,0.00,Rainwise IP-100,2013-05-13 18:21:00,
2013-05-13 14:30:00,53.0,47.0,30.01,WSW,247,10.0,20.0,80,0.00,,,0.00,Rainwise IP-100,2013-05-13 18:30:00,
2013-05-13 14:35:00,53.0,47.0,30.01,West,270,10.0,22.0,80,0.00,,,0.00,Rainwise IP-100,2013-05-13 18:35:00,
2013-05-13 14:40:00,54.0,48.0,30.00,WNW,292,10.0,19.0,81,0.00,,,0.00,Rainwise IP-100,2013-05-13 18:40:00,
2013-05-13 14:45:00,54.0,48.0,30.00,SW,225,3.0,20.0,81,0.00,,,0.00,Rainwise IP-100,2013-05-13 18:45:00,
2013-05-13 14:51:00,54.0,48.0,30.00,WSW,247,19.0,20.0,81,0.00,,,0.00,Rainwise IP-100,2013-05-13 18:51:00,
2013-05-13 14:58:00,53.0,47.0,30.00,WSW,247,6.0,25.0,80,0.00,,,0.00,Rainwise IP-100,2013-05-13 18:58:00,
2013-05-13 15:03:00,54.0,48.0,30.00,SW,225,6.0,22.0,81,0.00,,,0.00,Rainwise IP-100,2013-05-13 19:03:00,
2013-05-13 15:08:00,53.0,47.0,30.00,SSW,202,9.0,20.0,80,0.00,,,0.00,Rainwise IP-100,2013-05-13 19:08:00,
2013-05-13 15:13:00,54.0,48.0,29.99,WSW,247,10.0,20.0,81,0.00,,,0.00,Rainwise IP-100,2013-05-13 19:13:00,
2013-05-13 15:18:00,53.0,47.0,29.99,WNW,292,3.0,20.0,80,0.00,,,0.00,Rainwise IP-100,2013-05-13 19:18:00,
2013-05-13 15:23:00,54.0,48.0,30.00,WSW,247,8.0,19.0,81,0.00,,,0.00,Rainwise IP-100,2013-05-13 19:23:00,
2013-05-13 15:28:00,54.0,48.0,30.00,SW,225,4.0,14.0,81,0.00,,,0.00,Rainwise IP-100,2013-05-13 19:28:00,
2013-05-13 15:33:00,54.0,48.0,29.98,SW,225,7.0,20.0,81,0.00,,,0.00,Rainwise IP-100,2013-05-13 19:33:00,
2013-05-13 15:39:00,53.0,47.0,29.98,South,180,7.0,19.0,80,0.00,,,0.00,Rainwise IP-100,2013-05-13 19:39:00,
2013-05-13 15:44:00,53.0,47.0,29.99,SW,225,9.0,21.0,80,0.00,,,0.00,Rainwise IP-100,2013-05-13 19:44:00,
2013-05-13 15:49:00,53.0,47.0,29.99,West,270,2.0,21.0,80,0.00,,,0.00,Rainwise IP-100,2013-05-13 19:49:00,
2013-05-13 15:54:00,53.0,47.0,29.98,South,180,6.0,21.0,80,0.00,,,0.00,Rainwise IP-100,2013-05-13 19:54:00,
2013-05-13 15:59:00,53.0,47.0,29.98,WSW,247,16.0,17.0,80,0.00,,,0.00,Rainwise IP-100,2013-05-13 19:59:00,
2013-05-13 16:04:00,54.0,48.0,29.98,SSW,202,9.0,16.0,81,0.00,,,0.00,Rainwise IP-100,2013-05-13 20:04:00,
2013-05-13 16:09:00,54.0,48.0,29.98,West,270,1.0,16.0,81,0.00,,,0.00,Rainwise IP-100,2013-05-13 20:09:00,
2013-05-13 16:14:00,54.0,48.0,29.97,SSW,202,6.0,16.0,81,0.00,,,0.00,Rainwise IP-100,2013-05-13 20:14:00,
2013-05-13 16:19:00,53.0,47.0,29.99,SW,225,3.0,17.0,80,0.00,,,0.00,Rainwise IP-100,2013-05-13 20:19:00,
2013-05-13 16:24:00,53.0,47.0,29.99,SW,225,12.0,19.0,80,0.00,,,0.00,Rainwise IP-100,2013-05-13 20:24:00,
2013-05-13 16:29:00,53.0,47.0,29.99,SW,225,12.0,17.0,80,0.00,,,0.00,Rainwise IP-100,2013-05-13 20:29:00,
2013-05-13 16:34:00,53.0,47.0,29.99,SW,225,8.0,18.0,80,0.00,,,0.00,Rainwise IP-100,2013-05-13 20:34:00,
2013-05-13 16:39:00,53.0,47.0,29.99,SW,225,8.0,18.0,80,0.00,,,0.00,Rainwise IP-100,2013-05-13 20:39:00,
2013-05-13 16:44:00,53.0,47.0,29.99,SW,225,1.0,18.0,80,0.00,,,0.00,Rainwise IP-100,2013-05-13 20:44:00,
2013-05-13 16:49:00,54.0,48.0,29.99,WSW,247,2.0,15.0,81,0.00,,,0.00,Rainwise IP-100,2013-05-13 20:49:00,
2013-05-13 16:55:00,53.0,47.0,29.99,WSW,247,0.0,17.0,80,0.00,,,0.00,Rainwise IP-100,2013-05-13 20:55:00,
2013-05-13 17:00:00,53.0,47.0,29.98,West,270,10.0,19.0,80,0.00,,,0.00,Rainwise IP-100,2013-05-13 21:00:00,
2013-05-13 17:05:00,52.0,46.0,29.98,WSW,247,6.0,18.0,80,0.00,,,0.00,Rainwise IP-100,2013-05-13 21:05:00,
2013-05-13 17:10:00,52.0,46.0,29.98,SW,225,10.0,19.0,80,0.00,,,0.00,Rainwise IP-100,2013-05-13 21:10:00,
2013-05-13 17:15:00,52.0,46.0,29.98,SW,225,9.0,18.0,80,0.00,,,0.00,Rainwise IP-100,2013-05-13 21:15:00,
2013-05-13 17:20:00,51.0,45.0,29.98,West,270,8.0,14.0,80,0.00,,,0.00,Rainwise IP-100,2013-05-13 21:20:00,
2013-05-13 17:25:00,51.0,45.0,29.98,South,180,1.0,20.0,80,0.00,,,0.00,Rainwise IP-100,2013-05-13 21:25:00,
2013-05-13 17:30:00,51.0,45.0,29.98,SW,225,1.0,18.0,80,0.00,,,0.00,Rainwise IP-100,2013-05-13 21:30:00,
2013-05-13 17:35:00,51.0,45.0,29.98,SW,225,0.0,16.0,80,0.00,,,0.00,Rainwise IP-100,2013-05-13 21:35:00,
2013-05-13 17:40:00,51.0,45.0,29.97,SW,225,7.0,18.0,80,0.00,,,0.00,Rainwise IP-100,2013-05-13 21:40:00,
2013-05-13 17:45:00,51.0,45.0,29.97,SW,225,11.0,16.0,80,0.00,,,0.00,Rainwise IP-100,2013-05-13 21:45:00,
2013-05-13 17:50:00,51.0,45.0,29.98,WSW,247,6.0,15.0,80,0.00,,,0.00,Rainwise IP-100,2013-05-13 21:50:00,
2013-05-13 17:55:00,51.0,45.0,29.98,West,270,13.0,13.0,80,0.00,,,0.00,Rainwise IP-100,2013-05-13 21:55:00,
2013-05-13 18:00:00,50.0,44.0,29.97,SSW,202,6.0,17.0,80,0.00,,,0.00,Rainwise IP-100,2013-05-13 22:00:00,
2013-05-13 18:05:00,50.0,44.0,29.97,West,270,2.0,19.0,80,0.00,,,0.00,Rainwise IP-100,2013-05-13 22:05:00,
2013-05-13 18:11:00,50.0,44.0,29.97,SSW,202,10.0,15.0,80,0.00,,,0.00,Rainwise IP-100,2013-05-13 22:11:00,
2013-05-13 18:16:00,50.0,44.0,29.97,SW,225,1.0,12.0,80,0.00,,,0.00,Rainwise IP-100,2013-05-13 22:16:00,
2013-05-13 18:21:00,50.0,44.0,29.99,WSW,247,4.0,16.0,80,0.00,,,0.00,Rainwise IP-100,2013-05-13 22:21:00,
2013-05-13 18:26:00,50.0,44.0,29.99,West,270,7.0,14.0,80,0.00,,,0.00,Rainwise IP-100,2013-05-13 22:26:00,
2013-05-13 18:31:00,50.0,44.0,29.99,West,270,6.0,13.0,80,0.00,,,0.00,Rainwise IP-100,2013-05-13 22:31:00,
2013-05-13 18:36:00,50.0,44.0,29.99,West,270,12.0,15.0,80,0.00,,,0.00,Rainwise IP-100,2013-05-13 22:36:00,
2013-05-13 18:41:00,50.0,44.0,29.98,WSW,247,4.0,19.0,80,0.00,,,0.00,Rainwise IP-100,2013-05-13 22:41:00,
2013-05-13 18:46:00,50.0,44.0,29.98,SW,225,7.0,18.0,80,0.00,,,0.00,Rainwise IP-100,2013-05-13 22:46:00,
2013-05-13 18:51:00,50.0,44.0,29.96,WSW,247,8.0,19.0,80,0.00,,,0.00,Rainwise IP-100,2013-05-13 22:51:00,
2013-05-13 18:56:00,50.0,44.0,29.96,WSW,247,10.0,20.0,80,0.00,,,0.00,Rainwise IP-100,2013-05-13 22:56:00,
2013-05-13 19:01:00,50.0,44.0,29.98,WSW,247,4.0,15.0,80,0.00,,,0.00,Rainwise IP-100,2013-05-13 23:01:00,
2013-05-13 19:06:00,50.0,44.0,29.98,SW,225,1.0,16.0,80,0.00,,,0.00,Rainwise IP-100,2013-05-13 23:06:00,
2013-05-13 19:11:00,50.0,44.0,29.97,North,360,1.0,13.0,80,0.00,,,0.00,Rainwise IP-100,2013-05-13 23:11:00,
2013-05-13 19:16:00,50.0,44.0,29.97,WSW,247,3.0,12.0,80,0.00,,,0.00,Rainwise IP-100,2013-05-13 23:16:00,
2013-05-13 19:22:00,50.0,44.0,29.97,SW,225,9.0,15.0,80,0.00,,,0.00,Rainwise IP-100,2013-05-13 23:22:00,
2013-05-13 19:27:00,50.0,44.0,29.97,West,270,7.0,13.0,80,0.00,,,0.00,Rainwise IP-100,2013-05-13 23:27:00,
2013-05-13 19:32:00,50.0,44.0,29.98,SW,225,9.0,13.0,80,0.00,,,0.00,Rainwise IP-100,2013-05-13 23:32:00,
2013-05-13 19:37:00,50.0,44.0,29.98,SW,225,7.0,13.0,80,0.00,,,0.00,Rainwise IP-100,2013-05-13 23:37:00,
2013-05-13 19:42:00,50.0,44.0,29.98,North,360,0.0,13.0,80,0.00,,,0.00,Rainwise IP-100,2013-05-13 23:42:00,
2013-05-13 19:47:00,50.0,44.0,29.98,WSW,247,8.0,10.0,80,0.00,,,0.00,Rainwise IP-100,2013-05-13 23:47:00,
2013-05-13 19:52:00,49.0,43.0,29.99,North,360,0.0,10.0,80,0.00,,,0.00,Rainwise IP-100,2013-05-13 23:52:00,
2013-05-13 19:57:00,50.0,44.0,29.99,SW,225,5.0,10.0,80,0.00,,,0.00,Rainwise IP-100,2013-05-13 23:57:00,
2013-05-13 20:02:00,50.0,44.0,29.98,NW,315,1.0,12.0,80,0.00,,,0.00,Rainwise IP-100,2013-05-14 00:02:00,
2013-05-13 20:07:00,50.0,44.0,29.98,West,270,6.0,9.0,80,0.00,,,0.00,Rainwise IP-100,2013-05-14 00:07:00,
2013-05-13 20:12:00,49.0,43.0,29.98,SW,225,1.0,9.0,80,0.00,,,0.00,Rainwise IP-100,2013-05-14 00:12:00,
2013-05-13 20:17:00,49.0,43.0,29.98,NW,315,0.0,10.0,80,0.00,,,0.00,Rainwise IP-100,2013-05-14 00:17:00,
2013-05-13 20:22:00,50.0,44.0,29.98,WNW,292,7.0,12.0,80,0.00,,,0.00,Rainwise IP-100,2013-05-14 00:22:00,
2013-05-13 20:27:00,50.0,44.0,29.98,West,270,0.0,15.0,80,0.00,,,0.00,Rainwise IP-100,2013-05-14 00:27:00,
2013-05-13 20:33:00,50.0,44.0,29.98,WSW,247,9.0,12.0,80,0.00,,,0.00,Rainwise IP-100,2013-05-14 00:33:00,
2013-05-13 20:38:00,49.0,43.0,29.98,NW,315,3.0,9.0,80,0.00,,,0.00,Rainwise IP-100,2013-05-14 00:38:00,
2013-05-13 20:43:00,49.0,43.0,29.98,NW,315,3.0,7.0,80,0.00,,,0.00,Rainwise IP-100,2013-05-14 00:43:00,
2013-05-13 20:48:00,49.0,43.0,29.98,West,270,0.0,12.0,80,0.00,,,0.00,Rainwise IP-100,2013-05-14 00:48:00,
2013-05-13 20:53:00,49.0,43.0,29.99,WNW,292,1.0,8.0,80,0.00,,,0.00,Rainwise IP-100,2013-05-14 00:53:00,
2013-05-13 20:58:00,50.0,44.0,29.99,SW,225,0.0,14.0,80,0.00,,,0.00,Rainwise IP-100,2013-05-14 00:58:00,
2013-05-13 21:03:00,50.0,44.0,30.00,NW,315,4.0,12.0,80,0.00,,,0.00,Rainwise IP-100,2013-05-14 01:03:00,
2013-05-13 21:08:00,49.0,43.0,30.00,WNW,292,0.0,8.0,80,0.00,,,0.00,Rainwise IP-100,2013-05-14 01:08:00,
2013-05-13 21:13:00,49.0,43.0,29.99,South,180,0.0,10.0,80,0.00,,,0.00,Rainwise IP-100,2013-05-14 01:13:00,
2013-05-13 21:18:00,50.0,44.0,29.99,SW,225,7.0,10.0,80,0.00,,,0.00,Rainwise IP-100,2013-05-14 01:18:00,
2013-05-13 21:23:00,50.0,44.0,29.99,West,270,1.0,12.0,80,0.00,,,0.00,Rainwise IP-100,2013-05-14 01:23:00,
2013-05-13 21:28:00,50.0,44.0,29.99,West,270,4.0,9.0,80,0.00,,,0.00,Rainwise IP-100,2013-05-14 01:28:00,
2013-05-13 21:33:00,50.0,44.0,29.99,South,180,0.0,8.0,80,0.00,,,0.00,Rainwise IP-100,2013-05-14 01:33:00,
2013-05-13 21:38:00,50.0,44.0,29.99,West,270,1.0,10.0,80,0.00,,,0.00,Rainwise IP-100,2013-05-14 01:38:00,
2013-05-13 21:43:00,50.0,44.0,29.99,NNW,337,3.0,6.0,80,0.00,,,0.00,Rainwise IP-100,2013-05-14 01:43:00,
2013-05-13 21:49:00,50.0,44.0,29.99,SW,225,0.0,6.0,80,0.00,,,0.00,Rainwise IP-100,2013-05-14 01:49:00,
2013-05-13 21:54:00,50.0,44.0,29.99,West,270,1.0,12.0,80,0.00,,,0.00,Rainwise IP-100,2013-05-14 01:54:00,
2013-05-13 21:59:00,50.0,44.0,29.99,SW,225,0.0,12.0,80,0.00,,,0.00,Rainwise IP-100,2013-05-14 01:59:00,
2013-05-13 22:04:00,50.0,43.0,29.99,WSW,247,5.0,8.0,79,0.00,,,0.00,Rainwise IP-100,2013-05-14 02:04:00,
2013-05-13 22:09:00,50.0,43.0,29.99,WSW,247,8.0,8.0,79,0.00,,,0.00,Rainwise IP-100,2013-05-14 02:09:00,
2013-05-13 22:14:00,50.0,43.0,30.00,West,270,6.0,11.0,79,0.00,,,0.00,Rainwise IP-100,2013-05-14 02:14:00,
2013-05-13 22:19:00,50.0,43.0,30.00,WNW,292,0.0,9.0,79,0.00,,,0.00,Rainwise IP-100,2013-05-14 02:19:00,
2013-05-13 22:24:00,50.0,43.0,29.99,WNW,292,3.0,8.0,79,0.00,,,0.00,Rainwise IP-100,2013-05-14 02:24:00,
2013-05-13 22:29:00,50.0,44.0,29.98,NW,315,1.0,9.0,80,0.00,,,0.00,Rainwise IP-100,2013-05-14 02:29:00,
2013-05-13 22:34:00,50.0,43.0,29.98,WSW,247,4.0,10.0,79,0.00,,,0.00,Rainwise IP-100,2013-05-14 02:34:00,
2013-05-13 22:39:00,50.0,44.0,29.98,West,270,1.0,7.0,80,0.00,,,0.00,Rainwise IP-100,2013-05-14 02:39:00,
2013-05-13 22:44:00,50.0,43.0,29.98,NW,315,4.0,6.0,79,0.00,,,0.00,Rainwise IP-100,2013-05-14 02:44:00,
2013-05-13 22:49:00,52.0,46.0,29.96,WNW,292,2.0,16.0,80,0.00,,,0.00,Rainwise IP-100,2013-05-14 02:49:00,
2013-05-13 22:54:00,53.0,47.0,29.96,North,360,17.0,17.0,80,0.00,,,0.00,Rainwise IP-100,2013-05-14 02:54:00,
2013-05-13 22:59:00,53.0,47.0,29.95,NNW,337,15.0,19.0,80,0.00,,,0.00,Rainwise IP-100,2013-05-14 02:59:00,
2013-05-13 23:05:00,52.0,46.0,29.95,NNW,337,14.0,28.0,80,0.00,,,0.00,Rainwise IP-100,2013-05-14 03:05:00,
2013-05-13 23:10:00,52.0,46.0,29.97,NNW,337,9.0,20.0,80,0.00,,,0.00,Rainwise IP-100,2013-05-14 03:10:00,
2013-05-13 23:15:00,52.0,46.0,29.97,NNE,22,14.0,23.0,80,0.00,,,0.00,Rainwise IP-100,2013-05-14 03:15:00,
2013-05-13 23:20:00,52.0,46.0,29.96,NNE,22,17.0,22.0,80,0.00,,,0.00,Rainwise IP-100,2013-05-14 03:20:00,
2013-05-13 23:25:00,52.0,46.0,29.96,NNW,337,16.0,19.0,80,0.00,,,0.00,Rainwise IP-100,2013-05-14 03:25:00,
2013-05-13 23:30:00,52.0,46.0,29.97,NNW,337,17.0,23.0,80,0.00,,,0.00,Rainwise IP-100,2013-05-14 03:30:00,
2013-05-13 23:35:00,52.0,46.0,29.97,North,360,16.0,24.0,80,0.00,,,0.00,Rainwise IP-100,2013-05-14 03:35:00,
2013-05-13 23:40:00,52.0,46.0,29.97,NNE,22,8.0,19.0,80,0.00,,,0.00,Rainwise IP-100,2013-05-14 03:40:00,
2013-05-13 23:45:00,52.0,46.0,29.97,NNW,337,16.0,21.0,80,0.00,,,0.00,Rainwise IP-100,2013-05-14 03:45:00,
2013-05-13 23:50:00,52.0,46.0,29.97,North,360,16.0,25.0,80,0.00,,,0.00,Rainwise IP-100,2013-05-14 03:50:00,
2013-05-13 23:55:00,51.0,45.0,29.97,NNW,337,16.0,21.0,80,0.00,,,0.00,Rainwise IP-100,2013-05-14 03:55:00,